Starlink 32175

operational
NORAD ID: 60339 Int'l Des: 2024-136 Owner: SPXS Country: US Constellation: starlink
LEOCIRCULAR

About Starlink 32175

Description loading...

Live Position

Loading 3D Globe...

Upcoming Passes

Altitude History

Altitude vs Time

uPlot chart will show altitude changes over time

Two-Line Element Set

1 60339U 24136L 25306.32270378 .00000312 00000-0 22659-4 0 9999
2 60339 53.1613 307.3066 0001346 95.3486 264.7668 15.30186278 70160
Epoch: Nov 2, 2025 • Age: 29 hours

Current Status

Altitude 477.3 km
Velocity 7.63 km/s
Sub-Earth Point 36.09°N, 142.26°W
Launch Date Aug 2, 2024
Age 1.2 years
Type internet

Technical Details

Classification Payload
Mass 730.00 kg
Dry Mass 700.00 kg
Total Mass 730.00 kg
Length 0.30 m
Diameter 4.10 m
Span 29.00 m
Shape Box + pan
Manufacturer SPXS
Bus Type Starlink V2M
Phase Status In Orbit
Owner/State SPXS/US

Large Constellations

Loading constellations...